#�ϑ�����,���ϕ���,���ϕ���,�ő啗��,�ő啗����������,�ő�u�ԕ���,�ő�u�ԕ�����������
#(�N����),(m/s)   ,(16����),(m/s)   ,(16����)        ,(m/s)       ,(16����)            
2018/8/15 0:01,0.6,1,0.6,3,1.4,15
2018/8/15 0:02,0.6,1,0.6,3,1.4,3
2018/8/15 0:03,0.7,1,0.7,2,1.4,16
2018/8/15 0:04,0.8,1,0.8,2,1.9,16
2018/8/15 0:05,0.9,1,0.9,1,2,1
2018/8/15 0:06,0.9,1,0.9,1,1.1,2
2018/8/15 0:07,0.9,1,0.9,1,1.6,16
2018/8/15 0:08,0.9,1,0.9,1,1.8,16
2018/8/15 0:09,0.9,1,1,1,1.5,1
2018/8/15 0:10,0.9,1,1,1,1.3,1
2018/8/15 0:11,0.9,1,1,1,1.3,16
2018/8/15 0:12,0.9,1,1,1,1.5,3
2018/8/15 0:13,0.9,1,0.9,1,1.3,2
2018/8/15 0:14,0.9,1,0.9,1,2.2,3
2018/8/15 0:15,1,1,1,1,2.4,3
2018/8/15 0:16,1.1,2,1.1,2,1.9,3
2018/8/15 0:17,1.1,2,1.1,2,1.5,2
2018/8/15 0:18,1.1,2,1.1,2,1.6,16
2018/8/15 0:19,1.1,2,1.1,2,1.9,3
2018/8/15 0:20,1.2,2,1.2,2,2.2,4
2018/8/15 0:21,1.3,2,1.3,2,2.1,4
2018/8/15 0:22,1.4,3,1.4,3,2.4,3
2018/8/15 0:23,1.5,3,1.5,3,2.1,3
2018/8/15 0:24,1.5,3,1.5,3,2.9,3
2018/8/15 0:25,1.4,3,1.5,3,1.9,2
2018/8/15 0:26,1.4,2,1.4,3,2.5,3
2018/8/15 0:27,1.5,3,1.5,3,2,4
2018/8/15 0:28,1.5,3,1.5,3,2,3
2018/8/15 0:29,1.5,3,1.5,3,1.8,16
2018/8/15 0:30,1.4,2,1.5,3,2.1,3
2018/8/15 0:31,1.4,2,1.5,3,2.4,4
2018/8/15 0:32,1.4,2,1.4,3,2,3
2018/8/15 0:33,1.3,2,1.4,3,1.9,2
2018/8/15 0:34,1.3,2,1.3,3,1.8,1
2018/8/15 0:35,1.2,2,1.3,3,1.4,2
2018/8/15 0:36,1.2,2,1.2,3,2.5,3
2018/8/15 0:37,1.3,2,1.3,3,2.1,3
2018/8/15 0:38,1.2,2,1.3,3,1.5,2
2018/8/15 0:39,1.2,2,1.2,3,1.3,2
2018/8/15 0:40,1.2,2,1.2,2,1.1,16
2018/8/15 0:41,1.1,2,1.1,2,1.4,1
2018/8/15 0:42,1.1,2,1.1,2,1.3,1
2018/8/15 0:43,1,2,1.1,2,1.1,1
2018/8/15 0:44,1,2,1,2,1.3,16
2018/8/15 0:45,1,1,1,2,1.3,16
2018/8/15 0:46,0.8,1,0.9,2,0.6,14
2018/8/15 0:47,0.7,1,0.8,2,0.8,16
2018/8/15 0:48,0.7,1,0.7,2,1.1,1
2018/8/15 0:49,0.7,1,0.7,2,1.5,1
2018/8/15 0:50,0.7,1,0.7,2,2.2,1
2018/8/15 0:51,0.7,1,0.7,2,1,16
2018/8/15 0:52,0.7,1,0.7,2,1.3,16
2018/8/15 0:53,0.8,1,0.8,2,1.9,15
2018/8/15 0:54,0.8,1,0.8,2,1.8,16
2018/8/15 0:55,0.9,1,0.9,1,1.4,15
2018/8/15 0:56,0.9,16,0.9,1,1,1
2018/8/15 0:57,0.9,16,0.9,1,0.9,15
2018/8/15 0:58,0.9,16,0.9,1,1.3,16
2018/8/15 0:59,0.9,16,0.9,1,1.1,16
2018/8/15 1:00,0.8,16,0.9,1,0.8,1
2018/8/15 1:01,0.8,16,0.8,1,0.9,14
2018/8/15 1:02,0.7,16,0.8,1,0.3,16
2018/8/15 1:03,0.6,15,0.7,1,0.6,8
2018/8/15 1:04,0.5,15,0.6,1,1,8
2018/8/15 1:05,0.4,14,0.5,1,0.3,8
2018/8/15 1:06,0.3,13,0.4,1,0.3,2
2018/8/15 1:07,0.3,13,0.3,16,1.1,1
2018/8/15 1:08,0.4,14,0.4,16,1.9,15
2018/8/15 1:09,0.4,15,0.5,16,1.5,1
2018/8/15 1:10,0.5,2,0.5,16,1.3,1
2018/8/15 1:11,0.5,3,0.5,16,1.3,3
2018/8/15 1:12,0.7,3,0.7,15,2,2
2018/8/15 1:13,0.8,2,0.8,3,2.4,2
2018/8/15 1:14,0.9,2,0.9,2,1.8,3
2018/8/15 1:15,1,2,1,2,1.8,2
2018/8/15 1:16,1.2,2,1.2,2,2.7,3
2018/8/15 1:17,1.3,2,1.3,2,2.7,3
2018/8/15 1:18,1.4,2,1.4,2,2.7,3
2018/8/15 1:19,1.5,2,1.5,2,2.5,3
2018/8/15 1:20,1.6,3,1.6,3,2.5,2
2018/8/15 1:21,1.7,3,1.7,3,2.7,3
2018/8/15 1:22,1.7,3,1.7,3,2.5,2
2018/8/15 1:23,1.7,3,1.7,3,2.2,2
2018/8/15 1:24,1.7,3,1.7,3,2,2
2018/8/15 1:25,1.7,3,1.7,3,2,2
2018/8/15 1:26,1.7,3,1.7,3,2.2,1
2018/8/15 1:27,1.6,2,1.7,3,2.2,3
2018/8/15 1:28,1.5,2,1.6,3,2,16
2018/8/15 1:29,1.4,2,1.5,3,1.1,4
2018/8/15 1:30,1.3,2,1.4,3,1.3,1
2018/8/15 1:31,1.2,2,1.3,3,2.5,2
2018/8/15 1:32,1.3,2,1.3,3,2.7,2
2018/8/15 1:33,1.3,2,1.3,3,2.4,3
2018/8/15 1:34,1.3,2,1.3,3,2.4,3
2018/8/15 1:35,1.3,2,1.3,3,2.1,3
2018/8/15 1:36,1.3,2,1.3,3,2.4,4
2018/8/15 1:37,1.4,3,1.4,2,2.5,3
2018/8/15 1:38,1.4,3,1.4,2,2.5,4
2018/8/15 1:39,1.6,3,1.6,3,3.2,3
2018/8/15 1:40,1.8,3,1.8,3,3,3
2018/8/15 1:41,1.8,3,1.8,3,2.6,4
2018/8/15 1:42,1.8,3,1.8,3,2.2,3
2018/8/15 1:43,1.9,3,1.9,3,2.9,4
2018/8/15 1:44,2,3,2,3,3.1,4
2018/8/15 1:45,2,3,2,3,2.5,3
2018/8/15 1:46,2,3,2,3,3,3
2018/8/15 1:47,2,3,2,3,2,3
2018/8/15 1:48,1.9,3,2,3,2.9,4
2018/8/15 1:49,1.8,3,1.9,3,2.7,3
2018/8/15 1:50,1.8,3,1.9,3,3.6,4
2018/8/15 1:51,1.7,3,1.8,3,2.7,3
2018/8/15 1:52,1.8,3,1.8,3,2.6,3
2018/8/15 1:53,1.8,3,1.8,3,3,3
2018/8/15 1:54,1.8,3,1.8,3,2.6,3
2018/8/15 1:55,1.7,3,1.7,3,1.6,2
2018/8/15 1:56,1.6,3,1.7,3,2,3
2018/8/15 1:57,1.6,3,1.6,3,1.8,2
2018/8/15 1:58,1.6,3,1.6,3,1.6,3
2018/8/15 1:59,1.6,3,1.6,3,2,3
2018/8/15 2:00,1.5,3,1.6,3,2.2,3
2018/8/15 2:01,1.5,3,1.5,3,1.3,3
2018/8/15 2:02,1.4,3,1.5,3,1.5,4
2018/8/15 2:03,1.2,3,1.4,3,1.5,4
2018/8/15 2:04,1.2,3,1.2,3,1.8,3
2018/8/15 2:05,1.2,3,1.2,3,1.6,3
2018/8/15 2:06,1.1,3,1.2,3,1.1,3
2018/8/15 2:07,1.1,3,1.1,3,2.1,3
2018/8/15 2:08,1.1,3,1.1,3,1.5,4
2018/8/15 2:09,1,3,1.1,3,1.1,4
2018/8/15 2:10,1,3,1,3,2,3
2018/8/15 2:11,1,3,1,3,2,4
2018/8/15 2:12,1.1,3,1.1,3,1.8,3
2018/8/15 2:13,1.1,3,1.1,3,2,3
2018/8/15 2:14,1.1,3,1.1,3,2.1,5
2018/8/15 2:15,1.1,3,1.1,3,1.8,4
2018/8/15 2:16,1.2,3,1.2,3,1.6,4
2018/8/15 2:17,1.2,3,1.2,3,1.6,3
2018/8/15 2:18,1.2,3,1.2,3,1.5,2
2018/8/15 2:19,1.2,3,1.2,3,2.1,3
2018/8/15 2:20,1.3,3,1.3,3,2.2,3
2018/8/15 2:21,1.2,3,1.2,3,1.8,3
2018/8/15 2:22,1.3,3,1.3,3,2.2,3
2018/8/15 2:23,1.3,3,1.3,3,1.8,3
2018/8/15 2:24,1.4,3,1.4,3,4.2,4
2018/8/15 2:25,1.5,3,1.5,3,3.7,4
2018/8/15 2:26,1.6,3,1.6,3,3.7,4
2018/8/15 2:27,1.9,3,1.9,3,6.5,2
2018/8/15 2:28,2.2,3,2.2,3,5.2,5
2018/8/15 2:29,2.4,3,2.4,3,4.9,6
2018/8/15 2:30,2.5,4,2.5,4,4.3,6
2018/8/15 2:31,2.6,4,2.6,4,3.9,6
2018/8/15 2:32,2.7,4,2.7,4,3.7,4
2018/8/15 2:33,2.8,4,2.8,4,2.7,4
2018/8/15 2:34,2.7,4,2.8,4,3.7,4
2018/8/15 2:35,2.7,4,2.7,4,3.2,3
2018/8/15 2:36,2.7,5,2.7,4,2.6,5
2018/8/15 2:37,2.5,5,2.7,4,3.2,5
2018/8/15 2:38,2.5,5,2.5,4,5,5
2018/8/15 2:39,2.4,5,2.5,4,3.3,4
2018/8/15 2:40,2.2,5,2.3,4,2.5,4
2018/8/15 2:41,2.2,5,2.2,4,3.6,4
2018/8/15 2:42,2.2,5,2.2,4,3.7,3
2018/8/15 2:43,2.2,5,2.2,4,2.5,5
2018/8/15 2:44,2.1,5,2.2,4,2.1,3
2018/8/15 2:45,2.1,5,2.1,4,3.3,3
2018/8/15 2:46,2.2,4,2.2,5,3.2,3
2018/8/15 2:47,2,4,2.2,5,2.4,3
2018/8/15 2:48,1.8,4,2,5,2.1,2
2018/8/15 2:49,1.9,4,1.9,5,3.5,3
2018/8/15 2:50,1.9,3,1.9,5,3.2,3
2018/8/15 2:51,1.8,3,1.9,5,2.2,3
2018/8/15 2:52,1.7,3,1.8,5,2,2
2018/8/15 2:53,1.7,3,1.7,5,3.1,3
2018/8/15 2:54,1.8,3,1.8,5,3.5,4
2018/8/15 2:55,1.8,3,1.8,5,3.2,2
2018/8/15 2:56,1.7,3,1.9,4,2.6,3
2018/8/15 2:57,1.7,3,1.7,4,2.2,2
2018/8/15 2:58,1.8,3,1.8,4,3.9,2
2018/8/15 2:59,1.8,3,1.8,4,3.5,3
2018/8/15 3:00,1.9,3,1.9,3,3.7,4
2018/8/15 3:01,2,3,2,3,3.1,2
2018/8/15 3:02,2.1,3,2.1,3,3.1,3
2018/8/15 3:03,2.1,3,2.1,3,4.4,3
2018/8/15 3:04,2.1,3,2.1,3,3.7,3
2018/8/15 3:05,2.1,3,2.1,3,3.3,3
2018/8/15 3:06,2.2,3,2.2,3,2.7,3
2018/8/15 3:07,2.3,3,2.3,3,3,3
2018/8/15 3:08,2.2,3,2.3,3,1.6,3
2018/8/15 3:09,2.1,3,2.2,3,2.6,3
2018/8/15 3:10,2,3,2.1,3,3,1
2018/8/15 3:11,2,3,2,3,3.6,2
2018/8/15 3:12,1.9,3,2,3,2,2
2018/8/15 3:13,2,3,2,3,3.2,3
2018/8/15 3:14,1.9,3,2,3,2.7,3
2018/8/15 3:15,1.8,2,1.9,3,3.1,2
2018/8/15 3:16,1.9,2,1.9,3,3.2,1
2018/8/15 3:17,2,3,2,3,4.7,3
2018/8/15 3:18,2.1,3,2.1,3,3,3
2018/8/15 3:19,2.1,3,2.1,3,3,3
2018/8/15 3:20,2.2,3,2.2,3,3.9,4
2018/8/15 3:21,2.2,3,2.2,3,3.9,3
2018/8/15 3:22,2.3,3,2.3,3,4.2,4
2018/8/15 3:23,2.3,3,2.3,3,3.9,3
2018/8/15 3:24,2.3,3,2.3,3,3.9,3
2018/8/15 3:25,2.4,3,2.4,3,3.3,3
2018/8/15 3:26,2.4,3,2.4,3,3.3,3
2018/8/15 3:27,2.2,3,2.4,3,3.3,3
2018/8/15 3:28,2.3,3,2.3,3,3.5,3
2018/8/15 3:29,2.3,3,2.3,3,3.7,3
2018/8/15 3:30,2.4,3,2.4,3,3.5,3
2018/8/15 3:31,2.3,3,2.3,3,3.1,3
2018/8/15 3:32,2.2,3,2.3,3,3,4
2018/8/15 3:33,2.1,3,2.2,3,3.2,4
2018/8/15 3:34,2.1,3,2.2,3,3.8,4
2018/8/15 3:35,2.2,3,2.2,3,3.9,2
2018/8/15 3:36,2.1,3,2.2,3,2.7,3
2018/8/15 3:37,2.2,3,2.2,3,3.8,3
2018/8/15 3:38,2.2,3,2.2,3,2.7,3
2018/8/15 3:39,2.1,3,2.2,3,2.7,2
2018/8/15 3:40,2.1,3,2.1,3,3,2
2018/8/15 3:41,2.1,3,2.1,3,3.2,2
2018/8/15 3:42,2,3,2.1,3,1.9,3
2018/8/15 3:43,2.1,3,2.1,3,4.8,3
2018/8/15 3:44,2.2,2,2.2,3,3.7,3
2018/8/15 3:45,2.2,2,2.2,3,3.6,2
2018/8/15 3:46,2.3,3,2.3,3,3.6,4
2018/8/15 3:47,2.2,3,2.3,3,3.7,3
2018/8/15 3:48,2.4,3,2.4,3,3.7,3
2018/8/15 3:49,2.6,3,2.6,3,6.4,3
2018/8/15 3:50,2.8,3,2.8,3,6.1,3
2018/8/15 3:51,2.9,3,2.9,3,4.9,2
2018/8/15 3:52,3,3,3,3,3.7,3
2018/8/15 3:53,3,3,3,3,3.9,3
2018/8/15 3:54,2.9,3,3,3,3.6,2
2018/8/15 3:55,3,3,3,3,4.7,2
2018/8/15 3:56,3.1,3,3.1,3,4.7,3
2018/8/15 3:57,3,3,3.1,3,3.5,3
2018/8/15 3:58,3,3,3,3,3.8,4
2018/8/15 3:59,2.9,3,3,3,5,3
2018/8/15 4:00,2.8,3,2.8,3,5.1,4
2018/8/15 4:01,2.7,3,2.8,3,4.2,2
2018/8/15 4:02,2.8,3,2.8,3,3.9,4
2018/8/15 4:03,2.6,3,2.7,3,3.9,3
2018/8/15 4:04,2.5,3,2.6,3,2.5,5
2018/8/15 4:05,2.3,4,2.5,3,1.6,6
2018/8/15 4:06,2.2,4,2.3,3,2.9,3
2018/8/15 4:07,2.2,4,2.2,3,2.9,3
2018/8/15 4:08,2.1,4,2.2,3,2.2,4
2018/8/15 4:09,2.1,4,2.1,3,5.7,4
2018/8/15 4:10,2.1,4,2.1,3,6.1,3
2018/8/15 4:11,2.2,4,2.2,3,5.5,3
2018/8/15 4:12,2.3,4,2.3,3,4.9,6
2018/8/15 4:13,2.5,4,2.5,3,6.2,5
2018/8/15 4:14,2.7,4,2.7,4,5.2,6
2018/8/15 4:15,3,4,3,4,5.6,6
2018/8/15 4:16,3.2,4,3.2,4,3.9,6
2018/8/15 4:17,3.3,4,3.3,4,5.1,4
2018/8/15 4:18,3.5,5,3.5,4,5.1,5
2018/8/15 4:19,3.5,5,3.6,5,3.7,5
2018/8/15 4:20,3.3,5,3.5,5,3.6,2
2018/8/15 4:21,3.2,5,3.3,5,3.2,3
2018/8/15 4:22,3,5,3.2,5,2.4,4
2018/8/15 4:23,3,5,3,5,3.8,5
2018/8/15 4:24,2.8,5,3,5,3.7,5
2018/8/15 4:25,2.7,5,2.8,5,3,6
2018/8/15 4:26,2.5,5,2.6,5,2.9,5
2018/8/15 4:27,2.2,5,2.4,5,2.1,6
2018/8/15 4:28,2.1,5,2.2,5,2.7,5
2018/8/15 4:29,2,5,2.1,5,2.6,7
2018/8/15 4:30,2.1,5,2.1,5,3.9,5
2018/8/15 4:31,2.2,5,2.2,5,5.8,5
2018/8/15 4:32,2.4,6,2.4,5,5.1,6
2018/8/15 4:33,2.3,6,2.4,5,3.6,6
2018/8/15 4:34,2.4,6,2.4,5,4.4,5
2018/8/15 4:35,2.5,5,2.5,5,4.8,5
2018/8/15 4:36,2.6,5,2.6,5,3.7,4
2018/8/15 4:37,2.7,5,2.7,5,4.4,4
2018/8/15 4:38,2.8,5,2.8,5,4.8,2
2018/8/15 4:39,3,5,3,5,4.8,2
2018/8/15 4:40,3,4,3,5,4.9,3
2018/8/15 4:41,2.9,4,3.1,4,3.6,4
2018/8/15 4:42,2.9,4,2.9,4,6.2,3
2018/8/15 4:43,3.1,4,3.1,4,5.7,5
2018/8/15 4:44,3.1,4,3.2,4,4.7,4
2018/8/15 4:45,3.1,4,3.1,4,5,5
2018/8/15 4:46,3.1,4,3.1,4,4.4,4
2018/8/15 4:47,3,4,3.1,4,2.9,4
2018/8/15 4:48,3,4,3,4,3.6,3
2018/8/15 4:49,3,4,3,4,4.8,3
2018/8/15 4:50,2.9,4,3,4,4.9,4
2018/8/15 4:51,3.1,4,3.1,4,7.9,5
2018/8/15 4:52,3.2,4,3.2,4,6.1,5
2018/8/15 4:53,3.3,4,3.3,4,8.2,4
2018/8/15 4:54,3.4,4,3.4,4,6.2,6
2018/8/15 4:55,3.5,4,3.5,4,6.7,6
2018/8/15 4:56,3.5,4,3.5,4,4.2,7
2018/8/15 4:57,3.6,4,3.6,4,4.4,3
2018/8/15 4:58,3.7,5,3.7,4,7,4
2018/8/15 4:59,3.8,5,3.8,5,6.5,5
2018/8/15 5:00,3.9,5,3.9,5,6.8,5
2018/8/15 5:01,3.9,5,3.9,5,5.4,5
2018/8/15 5:02,3.8,5,3.9,5,4.4,5
2018/8/15 5:03,3.4,5,3.7,5,3,5
2018/8/15 5:04,3.2,5,3.4,5,3.6,4
2018/8/15 5:05,3,4,3.2,5,2.7,3
2018/8/15 5:06,2.9,4,3,5,2.5,3
2018/8/15 5:07,2.9,4,2.9,5,3.7,3
2018/8/15 5:08,2.7,4,2.9,5,3.5,4
2018/8/15 5:09,2.4,4,2.7,5,2.6,5
2018/8/15 5:10,2.2,4,2.4,5,2.6,5
2018/8/15 5:11,2.1,4,2.2,5,3.5,5
2018/8/15 5:12,2,4,2.1,5,3.9,4
2018/8/15 5:13,2,4,2,5,2.2,3
2018/8/15 5:14,2.1,4,2.1,5,3.8,4
2018/8/15 5:15,2.1,4,2.1,4,3.6,5
2018/8/15 5:16,2.1,4,2.1,4,2.5,4
2018/8/15 5:17,2.1,4,2.1,4,2.7,4
2018/8/15 5:18,2,4,2.1,4,3.3,4
2018/8/15 5:19,2.1,4,2.1,4,2.5,5
2018/8/15 5:20,2.1,4,2.1,4,2.9,3
2018/8/15 5:21,2,4,2.1,4,3,5
2018/8/15 5:22,2,4,2,4,4.1,2
2018/8/15 5:23,2.1,4,2.1,4,3.3,4
2018/8/15 5:24,2.2,4,2.2,4,3.6,5
2018/8/15 5:25,2.2,4,2.2,4,3.8,3
2018/8/15 5:26,2.3,4,2.3,4,3,4
2018/8/15 5:27,2.3,4,2.3,4,3.3,4
2018/8/15 5:28,2.4,4,2.4,4,3.2,4
2018/8/15 5:29,2.4,4,2.4,4,2.6,4
2018/8/15 5:30,2.3,4,2.4,4,2.7,4
2018/8/15 5:31,2.3,4,2.3,4,2.5,3
2018/8/15 5:32,2.3,4,2.4,4,3.7,2
2018/8/15 5:33,2.4,4,2.4,4,4.3,5
2018/8/15 5:34,2.5,4,2.5,4,4.5,3
2018/8/15 5:35,2.4,4,2.5,4,4.7,5
2018/8/15 5:36,2.4,4,2.4,4,3,4
2018/8/15 5:37,2.4,4,2.4,4,3.5,2
2018/8/15 5:38,2.3,3,2.4,4,2.7,2
2018/8/15 5:39,2.5,3,2.5,4,3.6,3
2018/8/15 5:40,2.5,3,2.5,4,3.1,4
2018/8/15 5:41,2.6,3,2.6,3,5.7,3
2018/8/15 5:42,2.9,3,2.9,3,6.7,4
2018/8/15 5:43,3,3,3,3,5.7,4
2018/8/15 5:44,2.9,3,3,3,4.5,3
2018/8/15 5:45,2.9,3,2.9,3,4.7,3
2018/8/15 5:46,2.9,3,3,3,4.4,4
2018/8/15 5:47,2.9,3,2.9,3,3.2,3
2018/8/15 5:48,2.9,3,3,3,2.4,3
2018/8/15 5:49,2.8,3,2.9,3,3.3,3
2018/8/15 5:50,2.8,3,2.8,3,4.3,5
2018/8/15 5:51,2.7,3,2.8,3,3.2,3
2018/8/15 5:52,2.4,3,2.7,3,5.5,5
2018/8/15 5:53,2.5,3,2.5,3,5.8,5
2018/8/15 5:54,2.5,4,2.5,3,5.8,5
2018/8/15 5:55,2.6,4,2.6,3,4.2,5
2018/8/15 5:56,2.6,4,2.6,3,3.7,4
2018/8/15 5:57,2.7,4,2.7,3,5.1,5
2018/8/15 5:58,2.9,4,2.9,3,4.1,5
2018/8/15 5:59,2.9,4,2.9,4,3.3,6
2018/8/15 6:00,2.9,4,2.9,4,3,3
2018/8/15 6:01,2.9,4,2.9,4,2.9,4
2018/8/15 6:02,2.9,4,2.9,4,4.3,3
2018/8/15 6:03,2.7,4,2.9,4,3.9,3
2018/8/15 6:04,2.5,4,2.6,4,3.3,3
2018/8/15 6:05,2.5,4,2.5,4,4.2,4
2018/8/15 6:06,2.6,4,2.6,4,4.9,3
2018/8/15 6:07,2.5,4,2.6,4,4.8,4
2018/8/15 6:08,2.5,4,2.5,4,3.8,3
2018/8/15 6:09,2.5,4,2.5,4,3.7,4
2018/8/15 6:10,2.5,4,2.5,4,3.5,4
2018/8/15 6:11,2.7,4,2.7,4,4.7,5
2018/8/15 6:12,2.7,4,2.8,4,4.2,5
2018/8/15 6:13,2.8,4,2.8,4,6,4
2018/8/15 6:14,3,4,3,4,6.2,5
2018/8/15 6:15,3.2,4,3.2,4,6.7,5
2018/8/15 6:16,3.3,4,3.3,4,6,6
2018/8/15 6:17,3.4,5,3.4,4,6,5
2018/8/15 6:18,3.4,5,3.4,4,4.5,5
2018/8/15 6:19,3.4,5,3.5,5,3.3,5
2018/8/15 6:20,3.5,5,3.5,5,4.8,3
2018/8/15 6:21,3.5,5,3.5,5,5.2,5
2018/8/15 6:22,3.6,5,3.6,5,5.1,4
2018/8/15 6:23,3.6,5,3.6,5,5.2,4
2018/8/15 6:24,3.5,5,3.6,5,5.6,3
2018/8/15 6:25,3.4,5,3.5,5,5.7,3
2018/8/15 6:26,3.2,4,3.4,5,4.1,4
2018/8/15 6:27,3.1,4,3.2,5,3.5,3
2018/8/15 6:28,3.2,4,3.2,5,5.4,3
2018/8/15 6:29,3.2,4,3.2,5,4.7,5
2018/8/15 6:30,3.2,4,3.2,5,3.9,3
2018/8/15 6:31,3.1,4,3.2,5,5,4
2018/8/15 6:32,3.1,4,3.1,5,5.4,5
2018/8/15 6:33,3,4,3.1,5,3,4
2018/8/15 6:34,2.9,4,3,5,4.7,5
2018/8/15 6:35,2.9,4,2.9,5,5.4,5
2018/8/15 6:36,2.9,4,2.9,4,3.6,4
2018/8/15 6:37,2.9,4,2.9,4,4.2,3
2018/8/15 6:38,2.9,4,2.9,4,4.9,4
2018/8/15 6:39,2.8,4,2.9,4,3.8,4
2018/8/15 6:40,2.8,4,2.8,4,4.4,3
2018/8/15 6:41,2.8,4,2.8,4,3.8,4
2018/8/15 6:42,2.6,4,2.8,4,3.3,5
2018/8/15 6:43,2.6,4,2.6,4,3.2,4
2018/8/15 6:44,2.7,4,2.7,4,3.8,3
2018/8/15 6:45,2.7,4,2.7,4,5.1,3
2018/8/15 6:46,2.8,4,2.8,4,4.4,3
2018/8/15 6:47,2.8,4,2.8,4,5.1,4
2018/8/15 6:48,2.8,4,2.9,4,4.3,4
2018/8/15 6:49,2.9,4,2.9,4,5,3
2018/8/15 6:50,2.9,4,2.9,4,3.5,4
2018/8/15 6:51,2.8,4,2.9,4,3.6,3
2018/8/15 6:52,2.9,3,2.9,4,4.4,2
2018/8/15 6:53,2.9,3,2.9,4,3.7,1
2018/8/15 6:54,3,3,3.1,3,5.4,3
2018/8/15 6:55,2.9,3,3,3,3.2,3
2018/8/15 6:56,2.9,3,2.9,3,4.8,3
2018/8/15 6:57,2.9,3,2.9,3,5.1,3
2018/8/15 6:58,2.8,3,2.9,3,3.2,2
2018/8/15 6:59,2.7,3,2.8,3,3.6,3
2018/8/15 7:00,2.7,3,2.7,3,3.6,3
2018/8/15 7:01,2.7,3,2.7,3,3.9,2
2018/8/15 7:02,2.7,3,2.7,3,3.8,2
2018/8/15 7:03,2.6,3,2.7,3,2.7,3
2018/8/15 7:04,2.4,2,2.6,3,3.7,3
2018/8/15 7:05,2.4,2,2.4,3,4.3,3
2018/8/15 7:06,2.5,3,2.5,3,4.5,3
2018/8/15 7:07,2.3,3,2.5,3,3.6,3
2018/8/15 7:08,2.5,3,2.5,3,4.8,4
2018/8/15 7:09,2.5,3,2.5,3,3.8,6
2018/8/15 7:10,2.4,3,2.4,3,3.1,4
2018/8/15 7:11,2.4,3,2.5,3,3.5,5
2018/8/15 7:12,2.5,3,2.5,3,5.2,5
2018/8/15 7:13,2.5,4,2.5,3,4.1,5
2018/8/15 7:14,2.6,4,2.7,4,4.7,4
2018/8/15 7:15,2.6,4,2.7,4,3.9,5
2018/8/15 7:16,2.6,4,2.6,4,3.5,3
2018/8/15 7:17,2.6,4,2.7,4,4.9,4
2018/8/15 7:18,2.6,4,2.6,4,4.8,4
2018/8/15 7:19,2.7,4,2.7,4,3,5
2018/8/15 7:20,2.7,4,2.7,4,3.7,3
2018/8/15 7:21,2.9,4,2.9,4,7,3
2018/8/15 7:22,3,4,3,4,6.1,4
2018/8/15 7:23,3.2,4,3.2,4,7,4
2018/8/15 7:24,3.2,4,3.2,4,6.3,2
2018/8/15 7:25,3.3,4,3.3,4,5.1,5
2018/8/15 7:26,3.4,4,3.4,4,5.2,5
2018/8/15 7:27,3.5,4,3.5,4,4.7,5
2018/8/15 7:28,3.5,4,3.5,4,4.8,4
2018/8/15 7:29,3.6,4,3.6,4,5,3
2018/8/15 7:30,3.7,4,3.7,4,5.2,3
2018/8/15 7:31,3.6,4,3.8,4,5.6,4
2018/8/15 7:32,3.5,4,3.6,4,4.4,4
2018/8/15 7:33,3.4,4,3.6,4,5.4,5
2018/8/15 7:34,3.4,4,3.5,4,5.5,3
2018/8/15 7:35,3.5,4,3.5,4,4.7,4
2018/8/15 7:36,3.5,4,3.5,4,4.7,5
2018/8/15 7:37,3.4,4,3.5,4,4.3,4
2018/8/15 7:38,3.3,4,3.4,4,3.2,6
2018/8/15 7:39,3.2,4,3.3,4,4.2,4
2018/8/15 7:40,3.1,4,3.2,4,3.1,4
2018/8/15 7:41,3,4,3.1,4,4.2,3
2018/8/15 7:42,3,4,3.1,4,3.8,5
2018/8/15 7:43,2.8,4,2.9,4,2.6,4
2018/8/15 7:44,2.7,4,2.8,4,4.5,5
2018/8/15 7:45,2.6,4,2.7,4,4.4,5
2018/8/15 7:46,2.5,4,2.6,4,3.7,2
2018/8/15 7:47,2.5,4,2.5,4,5,5
2018/8/15 7:48,2.5,4,2.6,4,3.7,3
2018/8/15 7:49,2.5,4,2.5,4,4.3,3
2018/8/15 7:50,2.5,4,2.6,4,5.2,4
2018/8/15 7:51,2.4,4,2.5,4,3.3,5
2018/8/15 7:52,2.5,4,2.5,4,3.7,4
2018/8/15 7:53,2.5,4,2.5,4,2.9,2
2018/8/15 7:54,2.4,4,2.5,4,3,3
2018/8/15 7:55,2.4,4,2.4,4,3,2
2018/8/15 7:56,2.3,4,2.4,4,3.2,5
2018/8/15 7:57,2.2,4,2.3,4,3,5
2018/8/15 7:58,2.2,4,2.2,4,2.9,6
2018/8/15 7:59,2.1,4,2.2,4,3.2,4
2018/8/15 8:00,2.1,4,2.1,4,3.8,4
2018/8/15 8:01,2.1,4,2.1,4,2.4,6
2018/8/15 8:02,1.9,4,2,4,2,6
2018/8/15 8:03,2,4,2,4,4.4,5
2018/8/15 8:04,2,4,2,4,3.1,4
2018/8/15 8:05,1.9,4,2,4,2.7,3
2018/8/15 8:06,1.9,4,1.9,4,2.5,5
2018/8/15 8:07,1.9,4,1.9,4,3.3,4
2018/8/15 8:08,1.9,4,1.9,4,2.7,6
2018/8/15 8:09,2,4,2,4,2.7,4
2018/8/15 8:10,2,4,2,4,3.8,2
2018/8/15 8:11,2,4,2,4,2.6,3
2018/8/15 8:12,2,4,2,4,2.7,5
2018/8/15 8:13,2,4,2,4,2.9,4
2018/8/15 8:14,2,4,2,4,3.8,3
2018/8/15 8:15,2.1,4,2.1,4,3.6,5
2018/8/15 8:16,2.2,4,2.2,4,4.5,4
2018/8/15 8:17,2.2,4,2.2,4,2.5,4
2018/8/15 8:18,2.1,4,2.1,4,1.8,3
2018/8/15 8:19,2,4,2,4,2.5,3
2018/8/15 8:20,1.9,4,2,4,2.5,3
2018/8/15 8:21,1.9,4,1.9,4,2,4
2018/8/15 8:22,1.8,3,1.9,4,2.2,3
2018/8/15 8:23,1.8,3,1.8,4,3.2,3
2018/8/15 8:24,1.8,3,1.8,4,3.5,5
2018/8/15 8:25,1.7,3,1.8,4,2.2,3
2018/8/15 8:26,1.5,3,1.7,4,2.2,5
2018/8/15 8:27,1.5,3,1.5,4,2.6,3
2018/8/15 8:28,1.6,3,1.6,4,2.1,5
2018/8/15 8:29,1.5,3,1.6,4,2.6,3
2018/8/15 8:30,1.5,3,1.5,4,2.1,3
2018/8/15 8:31,1.5,3,1.5,4,2.9,1
2018/8/15 8:32,1.6,3,1.6,3,3.2,3
2018/8/15 8:33,1.6,3,1.6,3,3.5,4
2018/8/15 8:34,1.6,3,1.6,3,3.9,5
2018/8/15 8:35,1.7,3,1.7,3,3.8,5
2018/8/15 8:36,1.8,4,1.8,4,2.9,6
2018/8/15 8:37,1.7,4,1.8,4,2.5,5
2018/8/15 8:38,1.8,4,1.8,4,2.2,5
2018/8/15 8:39,1.8,4,1.8,4,3.5,6
2018/8/15 8:40,1.9,5,1.9,4,3.9,4
2018/8/15 8:41,2.1,5,2.1,5,3.8,5
2018/8/15 8:42,2.2,5,2.2,5,3.5,6
2018/8/15 8:43,2.2,5,2.2,5,3.3,6
2018/8/15 8:44,2.1,6,2.2,5,3.1,6
2018/8/15 8:45,2,5,2.1,5,2.2,5
2018/8/15 8:46,1.9,5,2,5,1.8,4
2018/8/15 8:47,2,5,2,5,2.1,4
2018/8/15 8:48,1.9,5,2,5,1.8,3
2018/8/15 8:49,2,4,2,5,3.3,3
2018/8/15 8:50,1.9,4,2,5,3,3
2018/8/15 8:51,1.8,4,1.9,5,2.7,3
2018/8/15 8:52,1.8,4,1.8,5,3.1,2
2018/8/15 8:53,1.7,3,1.8,5,2.5,3
2018/8/15 8:54,1.6,3,1.7,6,2.2,2
2018/8/15 8:55,1.7,3,1.7,5,3,2
2018/8/15 8:56,1.8,3,1.8,5,3,3
2018/8/15 8:57,1.8,3,1.8,5,3.2,3
2018/8/15 8:58,1.9,3,1.9,5,3.2,3
2018/8/15 8:59,1.9,3,1.9,4,2.4,3
2018/8/15 9:00,1.8,3,1.9,4,2.6,2
2018/8/15 9:01,1.9,3,1.9,3,3.1,4
2018/8/15 9:02,1.9,3,1.9,3,3.9,2
2018/8/15 9:03,2,3,2,3,3.2,3
2018/8/15 9:04,2.1,3,2.1,3,4.5,3
2018/8/15 9:05,2.1,3,2.1,3,3.5,2
2018/8/15 9:06,2.1,2,2.1,3,3.3,3
2018/8/15 9:07,2.3,3,2.3,3,4.4,3
2018/8/15 9:08,2.3,2,2.3,3,4.4,2
2018/8/15 9:09,2.5,2,2.5,2,4.9,2
2018/8/15 9:10,2.7,3,2.7,3,4.8,3
2018/8/15 9:11,2.7,3,2.7,3,3.7,3
2018/8/15 9:12,2.7,3,2.8,3,4.9,3
2018/8/15 9:13,2.8,3,2.8,3,3.8,3
2018/8/15 9:14,2.8,2,2.8,3,3.8,2
2018/8/15 9:15,2.8,3,2.8,3,3.3,3
2018/8/15 9:16,2.8,3,2.9,3,2.7,3
2018/8/15 9:17,2.7,2,2.8,3,3.2,1
2018/8/15 9:18,2.6,2,2.7,3,3.7,2
2018/8/15 9:19,2.5,2,2.7,3,4.1,3
2018/8/15 9:20,2.4,2,2.5,3,5.2,3
2018/8/15 9:21,2.4,2,2.5,3,4.9,1
2018/8/15 9:22,2.4,2,2.4,3,4.4,2
2018/8/15 9:23,2.3,2,2.4,3,2.5,1
2018/8/15 9:24,2.2,2,2.3,3,3.2,1
2018/8/15 9:25,2.2,2,2.2,3,3.7,2
2018/8/15 9:26,2.2,2,2.2,3,2.7,3
2018/8/15 9:27,2.2,2,2.2,2,2.6,2
2018/8/15 9:28,2,2,2.2,2,2.6,2
2018/8/15 9:29,2,2,2,2,3,3
2018/8/15 9:30,1.9,2,2,2,3.9,3
2018/8/15 9:31,1.9,2,1.9,2,4.1,2
2018/8/15 9:32,1.8,2,1.9,2,3.5,3
2018/8/15 9:33,1.9,2,1.9,2,3,2
2018/8/15 9:34,1.9,2,2,2,3.2,2
2018/8/15 9:35,1.9,2,1.9,2,3.1,2
2018/8/15 9:36,1.9,2,1.9,2,3.1,3
2018/8/15 9:37,1.9,2,1.9,2,2.4,3
2018/8/15 9:38,1.9,2,1.9,2,1.8,2
2018/8/15 9:39,1.8,2,1.9,2,2.7,3
2018/8/15 9:40,1.8,2,1.8,2,2.7,3
2018/8/15 9:41,1.8,2,1.8,2,3.2,3
2018/8/15 9:42,1.8,2,1.8,2,3,2
2018/8/15 9:43,1.9,3,1.9,2,3.6,2
2018/8/15 9:44,1.8,3,1.9,2,2.6,3
2018/8/15 9:45,1.8,2,1.8,2,2.1,3
2018/8/15 9:46,1.7,2,1.8,2,3.6,2
2018/8/15 9:47,1.7,2,1.7,2,3.3,2
2018/8/15 9:48,1.8,2,1.8,2,3.3,2
2018/8/15 9:49,1.9,2,1.9,3,3.3,2
2018/8/15 9:50,1.9,2,1.9,3,4.1,3
2018/8/15 9:51,2,2,2,2,3.9,3
2018/8/15 9:52,2.1,2,2.1,2,3.8,4
2018/8/15 9:53,2,2,2.1,2,3.9,3
2018/8/15 9:54,2.2,2,2.2,2,4.1,3
2018/8/15 9:55,2.3,2,2.3,2,3.5,3
2018/8/15 9:56,2.3,3,2.3,2,4.4,3
2018/8/15 9:57,2.6,3,2.6,3,5.7,3
2018/8/15 9:58,2.6,3,2.6,3,3.7,4
2018/8/15 9:59,2.6,3,2.7,3,3,4
2018/8/15 10:00,2.5,3,2.6,3,3.2,3
2018/8/15 10:01,2.4,3,2.5,3,3,5
2018/8/15 10:02,2.3,3,2.4,3,4.1,5
2018/8/15 10:03,2.3,3,2.4,3,3.8,3
2018/8/15 10:04,2.2,3,2.3,3,3.9,3
2018/8/15 10:05,2.2,3,2.3,3,3.9,3
2018/8/15 10:06,2.2,3,2.2,3,3.5,3
2018/8/15 10:07,1.9,3,2.2,3,2.9,3
2018/8/15 10:08,1.9,3,1.9,3,3.2,3
2018/8/15 10:09,1.9,3,1.9,3,2.7,4
2018/8/15 10:10,1.9,3,1.9,3,3,3
2018/8/15 10:11,2,3,2,3,3,3
2018/8/15 10:12,2,3,2,3,2.9,4
2018/8/15 10:13,1.8,3,2,3,2.4,5
2018/8/15 10:14,1.9,3,1.9,3,4.4,4
2018/8/15 10:15,2,3,2,3,3.9,4
2018/8/15 10:16,2,3,2,3,3.6,3
2018/8/15 10:17,2.2,3,2.2,3,4.1,4
2018/8/15 10:18,2.2,3,2.2,3,3.7,3
2018/8/15 10:19,2.3,3,2.3,3,3.5,3
2018/8/15 10:20,2.3,3,2.3,3,3,2
2018/8/15 10:21,2.4,4,2.4,3,3.2,3
2018/8/15 10:22,2.4,3,2.4,3,3.8,3
2018/8/15 10:23,2.6,4,2.6,3,5.7,4
2018/8/15 10:24,2.6,4,2.7,4,4.7,2
2018/8/15 10:25,2.7,4,2.7,4,5.2,5
2018/8/15 10:26,2.7,4,2.7,4,3.2,4
2018/8/15 10:27,2.7,4,2.7,4,4.4,5
2018/8/15 10:28,2.7,4,2.7,4,4.3,5
2018/8/15 10:29,2.7,4,2.7,4,4.1,6
2018/8/15 10:30,2.7,5,2.8,4,3.3,6
2018/8/15 10:31,2.7,5,2.7,4,3.5,5
2018/8/15 10:32,2.7,5,2.7,4,2.7,4
2018/8/15 10:33,2.6,5,2.7,4,4.4,6
2018/8/15 10:34,2.8,5,2.8,4,5.5,5
2018/8/15 10:35,2.8,5,2.8,4,5.5,5
2018/8/15 10:36,2.9,5,2.9,5,4.1,5
2018/8/15 10:37,3,5,3,5,5.4,6
2018/8/15 10:38,2.9,6,3,5,4.7,7
2018/8/15 10:39,2.8,6,2.9,5,3.5,6
2018/8/15 10:40,2.8,6,2.8,5,3.3,5
2018/8/15 10:41,2.9,6,2.9,5,5,6
2018/8/15 10:42,3,6,3,5,5,5
2018/8/15 10:43,3.1,6,3.1,6,5,5
2018/8/15 10:44,3,6,3.1,6,5.5,4
2018/8/15 10:45,2.9,6,3,6,5.6,6
2018/8/15 10:46,2.9,6,2.9,6,3.9,5
2018/8/15 10:47,2.8,6,2.9,6,3.8,6
2018/8/15 10:48,2.7,6,2.7,6,3.9,4
2018/8/15 10:49,2.8,6,2.8,6,4.3,5
2018/8/15 10:50,3,5,3,6,4.8,5
2018/8/15 10:51,3,5,3.1,6,4.8,5
2018/8/15 10:52,2.9,5,3,6,4.1,4
2018/8/15 10:53,2.9,5,2.9,6,4.4,6
2018/8/15 10:54,2.9,5,3,5,3.7,6
2018/8/15 10:55,2.7,5,2.9,5,2.6,4
2018/8/15 10:56,2.6,5,2.7,5,2.7,4
2018/8/15 10:57,2.5,5,2.6,5,2.7,7
2018/8/15 10:58,2.5,5,2.5,5,3.1,6
2018/8/15 10:59,2.4,5,2.5,5,3.2,3
2018/8/15 11:00,2.3,5,2.4,5,3.9,4
2018/8/15 11:01,2.3,5,2.3,5,4.3,4
2018/8/15 11:02,2.3,5,2.3,5,4.2,5
2018/8/15 11:03,2.2,5,2.3,5,3,5
2018/8/15 11:04,2.1,5,2.2,5,3,5
2018/8/15 11:05,2.1,5,2.1,5,3,6
2018/8/15 11:06,2.2,5,2.2,5,5,6
2018/8/15 11:07,2.4,5,2.4,5,5.5,6
2018/8/15 11:08,2.4,5,2.4,5,2.5,6
2018/8/15 11:09,2.5,6,2.5,5,3.9,6
2018/8/15 11:10,2.4,6,2.5,5,2.6,4
2018/8/15 11:11,2.2,6,2.4,5,2,5
2018/8/15 11:12,2.2,6,2.3,5,4.2,5
2018/8/15 11:13,2.3,6,2.3,5,3.1,5
2018/8/15 11:14,2.2,6,2.3,5,3.2,5
2018/8/15 11:15,2.2,5,2.2,5,2.4,4
2018/8/15 11:16,2.1,5,2.2,5,2.5,4
2018/8/15 11:17,1.9,5,2.1,5,4.1,6
2018/8/15 11:18,2,5,2,5,4.2,6
2018/8/15 11:19,1.9,5,2,6,3.2,6
2018/8/15 11:20,2,5,2,6,3.9,7
2018/8/15 11:21,2,6,2,6,2,8
2018/8/15 11:22,1.9,6,2,6,2.6,4
2018/8/15 11:23,1.8,6,1.9,6,3,6
2018/8/15 11:24,1.9,6,1.9,6,3.8,5
2018/8/15 11:25,2,5,2,5,3.9,5
2018/8/15 11:26,2.2,6,2.2,5,4.7,5
2018/8/15 11:27,2.4,5,2.4,5,5.5,6
2018/8/15 11:28,2.4,6,2.4,5,5.4,6
2018/8/15 11:29,2.4,6,2.5,6,3.1,7
2018/8/15 11:30,2.4,5,2.4,6,2.6,4
2018/8/15 11:31,2.5,5,2.5,6,3.6,6
2018/8/15 11:32,2.6,5,2.6,5,4.2,6
2018/8/15 11:33,2.7,5,2.7,5,4.2,5
2018/8/15 11:34,2.8,6,2.8,5,3.9,6
2018/8/15 11:35,2.8,6,2.8,5,4.3,6
2018/8/15 11:36,2.9,6,2.9,6,7.1,6
2018/8/15 11:37,2.9,6,3,6,6.4,6
2018/8/15 11:38,2.9,6,2.9,6,4.5,5
2018/8/15 11:39,3,6,3,6,3.8,8
2018/8/15 11:40,3.1,6,3.1,6,3.9,9
2018/8/15 11:41,3.2,7,3.2,7,5.2,7
2018/8/15 11:42,3.2,7,3.2,7,5.4,7
2018/8/15 11:43,3.2,7,3.2,7,4.7,9
2018/8/15 11:44,3.3,7,3.3,7,5.5,9
2018/8/15 11:45,3.4,7,3.4,7,6.8,8
2018/8/15 11:46,3.1,8,3.4,7,4.8,7
2018/8/15 11:47,3,8,3,7,5.7,6
2018/8/15 11:48,3.1,7,3.1,7,7.7,5
2018/8/15 11:49,3,7,3.1,7,3.9,4
2018/8/15 11:50,3.2,7,3.2,7,7.1,7